W2CJS Weather Reports


Display with metric or nautical units.
time (UTC)temp
F
wind
direction
speed
MPH
gust
MPH
rain 1hr
in
rain 24hr
in
rain mn
in
humidity
%
barometer
mb
20260904104003 60 0 0.0 0.0 0.00 0.00 0.00 96 1012.7
20260904103003 59 0 0.0 0.0 0.00 0.00 0.00 96 1012.7
20260904102024 59 0 0.0 0.0 0.00 0.00 0.00 96 1012.7
20260904101024 59 0 0.0 0.0 0.00 0.00 0.00 96 1012.4
20260904100003 59 0 0.0 0.0 0.00 0.00 0.00 96 1012.5
20260904095003 59 0 0.0 0.0 0.00 0.00 0.00 96 1012.4
20260904094003 58 0 0.0 0.0 0.00 0.00 0.00 96 1012.4
20260904093024 58 0 0.0 0.0 0.00 0.00 0.00 96 1012.2
20260904092003 58 0 0.0 0.0 0.00 0.00 0.00 96 1012.3
20260904091024 58 0 0.0 0.0 0.00 0.00 0.00 96 1012.2
20260904090003 57 0 0.0 0.0 0.00 0.00 0.00 96 1012.1
20260904085024 57 0 0.0 0.0 0.00 0.00 0.00 96 1012.1
20260904084003 57 0 0.0 0.0 0.00 0.00 0.00 95 1012.0
20260904083003 57 0 0.0 0.0 0.00 0.00 0.00 95 1012.0
20260904082003 57 0 0.0 0.0 0.00 0.00 0.00 95 1012.0
20260904081003 57 0 0.0 0.0 0.00 0.00 0.00 95 1011.9
20260904080003 57 0 0.0 0.0 0.00 0.00 0.00 94 1012.0
20260904075024 58 0 0.0 0.0 0.00 0.00 0.00 95 1011.9
20260904074003 58 0 0.0 0.0 0.00 0.00 0.00 95 1011.9
20260904073003 58 0 0.0 0.0 0.00 0.00 0.00 95 1012.1
20260904072003 58 0 0.0 0.0 0.00 0.00 0.00 95 1012.0
20260904071024 59 0 0.0 0.0 0.00 0.00 0.00 95 1012.0
20260904070003 59 0 0.0 0.0 0.00 0.00 0.00 94 1012.0
20260904065003 59 0 0.0 0.0 0.00 0.00 0.00 94 1011.9
20260904064003 60 0 0.0 0.0 0.00 0.01 0.00 94 1012.0
20260904063003 60 0 0.0 0.0 0.00 0.01 0.00 95 1012.0
20260904062003 60 0 0.0 0.0 0.00 0.01 0.00 95 1012.2
20260904061024 60 0 0.0 0.0 0.00 0.01 0.00 95 1012.3
20260904060003 60 0 0.0 0.0 0.00 0.01 0.00 95 1012.3
20260904055024 60 0 0.0 0.0 0.00 0.01 0.00 95 1012.4
20260904054003 60 0 0.0 0.0 0.00 0.01 0.00 95 1012.4
20260904053003 60 0 0.0 0.0 0.00 0.01 0.00 94 1012.5
20260904052024 61 0 0.0 0.0 0.00 0.01 0.00 94 1012.5
20260904051003 61 0 0.0 0.0 0.00 0.01 0.00 94 1012.6
20260904050003 61 0 0.0 0.0 0.00 0.01 0.00 94 1012.5
20260904045003 61 0 0.0 0.0 0.00 0.01 0.00 94 1012.6
20260904044003 61 0 0.0 0.0 0.00 0.03 0.00 94 1012.7
20260904043003 61 0 0.0 0.0 0.00 0.10 0.00 94 1012.7
20260904042024 62 0 0.0 0.0 0.00 0.14 0.00 93 1012.7
20260904041024 62 261 0.0 1.0 0.00 0.16 0.00 93 1012.7
20260904040025 63 0 0.0 0.0 0.00 0.17 0.00 93 1012.6
20260904035003 63 0 0.0 0.0 0.00 0.17 0.17 94 1012.7
20260904034003 63 261 0.0 1.0 0.00 0.18 0.17 94 1012.8
20260904033003 62 261 0.0 3.0 0.00 0.19 0.17 94 1012.8
20260904032003 62 0 0.0 0.0 0.00 0.19 0.17 94 1012.8
20260904031003 62 0 0.0 0.0 0.00 0.20 0.17 94 1012.8
20260904030024 62 0 0.0 0.0 0.00 0.20 0.17 94 1012.8
20260904025003 62 0 0.0 0.0 0.00 0.20 0.17 94 1012.8
20260904024003 62 0 0.0 0.0 0.00 0.20 0.17 94 1012.8
20260904023024 62 0 0.0 0.0 0.00 0.20 0.17 94 1012.9
20260904022003 62 0 0.0 0.0 0.00 0.20 0.17 93 1012.9
20260904021003 62 0 0.0 0.0 0.00 0.20 0.17 93 1012.9
20260904020003 62 0 0.0 0.0 0.00 0.20 0.17 93 1013.0
20260904015003 62 0 0.0 0.0 0.00 0.20 0.17 93 1013.2
20260904014024 62 0 0.0 0.0 0.00 0.20 0.17 93 1013.3
20260904013003 62 0 0.0 0.0 0.00 0.20 0.17 92 1013.5
20260904012003 62 0 0.0 0.0 0.00 0.21 0.17 92 1013.4
20260904011003 63 0 0.0 0.0 0.00 0.21 0.17 91 1013.5
20260904010003 63 0 0.0 0.0 0.00 0.21 0.17 91 1013.4
20260904005003 64 0 0.0 0.0 0.00 0.21 0.17 91 1013.2
20260904004024 64 0 0.0 0.0 0.00 0.21 0.17 91 1013.1
20260904003003 64 0 0.0 0.0 0.00 0.21 0.17 90 1013.1
20260904002003 65 0 0.0 0.0 0.00 0.21 0.17 90 1013.0
20260904001003 65 0 0.0 0.0 0.00 0.21 0.17 89 1013.0
20260904000003 65 0 0.0 0.0 0.00 0.21 0.17 88 1012.7
20260903235003 66 0 0.0 0.0 0.00 0.21 0.17 87 1012.6
20260903234003 66 0 0.0 0.0 0.00 0.21 0.17 86 1012.4
20260903233003 67 0 0.0 0.0 0.00 0.21 0.17 85 1012.3
20260903232003 68 0 0.0 0.0 0.00 0.21 0.17 84 1012.1
20260903231024 68 0 0.0 0.0 0.00 0.21 0.17 83 1012.3
20260903230003 69 0 0.0 0.0 0.00 0.21 0.17 82 1012.4
20260903225003 70 0 0.0 0.0 0.00 0.21 0.17 80 1012.4
20260903224024 70 0 0.0 0.0 0.00 0.21 0.17 79 1012.4
20260903223003 72 0 0.0 0.0 0.00 0.21 0.17 75 1012.5
20260903222003 72 261 0.0 2.0 0.00 0.21 0.17 74 1012.4
20260903221003 73 166 0.0 5.0 0.00 0.21 0.17 73 1012.4
20260903220003 74 150 1.0 3.0 0.00 0.21 0.17 72 1012.3
20260903215003 74 223 1.0 4.0 0.00 0.21 0.17 69 1012.3
20260903214003 74 64 0.0 3.0 0.00 0.21 0.17 69 1012.2
20260903213003 74 354 0.0 3.0 0.00 0.21 0.17 67 1012.3
20260903212003 74 60 1.0 5.0 0.00 0.21 0.17 67 1012.5
20260903211003 75 228 2.0 8.0 0.00 0.21 0.17 65 1012.5
20260903210024 75 242 3.0 9.0 0.00 0.21 0.17 65 1012.5
20260903205003 76 223 3.0 9.0 0.00 0.21 0.17 65 1012.4
20260903204003 75 227 4.0 10.0 0.00 0.21 0.17 63 1012.8
20260903203004 75 226 3.0 10.0 0.00 0.21 0.17 65 1012.6
20260903202003 75 223 4.0 11.0 0.00 0.21 0.17 65 1012.4
20260903201003 75 222 4.0 9.0 0.00 0.21 0.17 64 1012.6
20260903200003 76 228 4.0 10.0 0.00 0.21 0.17 62 1012.5
20260903195003 76 229 3.0 7.0 0.00 0.21 0.17 62 1012.6
20260903194024 76 238 3.0 8.0 0.00 0.21 0.17 62 1012.6
20260903193003 77 238 3.0 14.0 0.00 0.21 0.17 61 1012.5
20260903192003 76 225 3.0 9.0 0.00 0.21 0.17 63 1012.7
20260903191003 77 231 5.0 13.0 0.00 0.21 0.17 60 1012.7
20260903190003 77 191 2.0 8.0 0.00 0.21 0.17 61 1012.5
20260903185003 76 223 4.0 11.0 0.00 0.21 0.17 62 1012.6
20260903184003 77 229 4.0 11.0 0.00 0.21 0.17 61 1012.4
20260903183024 77 223 4.0 9.0 0.00 0.21 0.17 63 1012.5
20260903182003 77 290 3.0 10.0 0.00 0.21 0.17 60 1012.5
20260903181024 78 223 4.0 12.0 0.00 0.21 0.17 62 1012.5
20260903180024 76 225 5.0 11.0 0.00 0.21 0.17 66 1012.5
20260903175003 76 221 4.0 8.0 0.00 0.21 0.17 68 1012.6
20260903174024 75 234 3.0 8.0 0.00 0.21 0.17 67 1012.6
20260903173003 76 241 4.0 9.0 0.00 0.21 0.17 66 1012.6
20260903172003 76 226 4.0 13.0 0.00 0.21 0.17 67 1012.6
20260903171003 75 255 3.0 6.0 0.00 0.21 0.17 73 1012.7
20260903170024 75 228 6.0 14.0 0.00 0.21 0.17 74 1012.6
20260903165024 74 232 3.0 10.0 0.00 0.21 0.17 75 1012.7
20260903164003 74 226 4.0 9.0 0.00 0.21 0.17 78 1012.7
20260903163003 72 240 2.0 5.0 0.00 0.21 0.17 81 1012.8
20260903162003 72 224 3.0 9.0 0.00 0.21 0.17 83 1012.9
20260903161003 72 220 3.0 8.0 0.00 0.21 0.17 81 1013.1
20260903160003 71 221 2.0 6.0 0.00 0.21 0.17 87 1013.2
20260903155003 70 242 2.0 4.0 0.00 0.21 0.17 88 1013.1
20260903154003 70 228 2.0 7.0 0.00 0.21 0.17 88 1013.1
20260903153003 70 223 4.0 11.0 0.00 0.21 0.17 89 1013.0
20260903152003 69 230 2.0 5.0 0.00 0.21 0.17 93 1013.1
20260903151003 69 0 0.0 0.0 0.00 0.21 0.17 95 1013.2
20260903150003 68 227 1.0 3.0 0.00 0.21 0.17 94 1013.2
20260903145003 68 227 0.0 2.0 0.00 0.21 0.17 95 1013.2
20260903144003 68 227 1.0 4.0 0.00 0.21 0.17 95 1013.2
20260903143004 68 228 1.0 5.0 0.00 0.21 0.17 95 1013.2
20260903142003 68 227 2.0 6.0 0.00 0.21 0.17 95 1013.1
20260903141003 68 225 2.0 4.0 0.00 0.21 0.17 95 1013.1
20260903140024 67 224 2.0 5.0 0.00 0.21 0.17 95 1013.1
20260903135003 67 220 2.0 4.0 0.00 0.21 0.17 95 1013.3
20260903134003 67 214 2.0 5.0 0.00 0.21 0.17 95 1013.3
20260903133003 67 223 3.0 6.0 0.00 0.21 0.17 95 1013.3
20260903132003 67 221 3.0 5.0 0.00 0.21 0.17 95 1013.3
20260903131003 67 221 2.0 4.0 0.00 0.21 0.17 95 1013.3
20260903130003 67 223 3.0 5.0 0.00 0.21 0.17 95 1013.3
20260903125003 66 220 2.0 5.0 0.00 0.21 0.17 95 1013.3
20260903124024 66 223 2.0 5.0 0.00 0.21 0.17 95 1013.4
20260903123003 66 232 2.0 5.0 0.00 0.21 0.17 95 1013.4
20260903122003 66 225 1.0 4.0 0.00 0.21 0.17 95 1013.4
20260903121003 66 225 0.0 2.0 0.00 0.21 0.17 95 1013.5
20260903120024 66 226 2.0 5.0 0.00 0.21 0.17 95 1013.3
20260903115024 66 213 1.0 3.0 0.00 0.21 0.17 96 1013.4
20260903114003 66 213 1.0 4.0 0.00 0.21 0.17 96 1013.4
20260903113003 66 220 2.0 5.0 0.00 0.21 0.17 96 1013.5
20260903112003 66 223 2.0 6.0 0.00 0.21 0.17 96 1013.4
20260903111024 66 222 3.0 6.0 0.00 0.21 0.17 96 1013.3
20260903110003 66 224 3.0 6.0 0.00 0.21 0.17 96 1013.4
20260903105003 65 228 2.0 4.0 0.00 0.21 0.17 96 1013.3